Location: Chamerau
(49.1969°N, 12.7525°E)
Time: 05:21:06
(UTC+00:00)

Spot 2 Rocket - Pass Details

Date: 18 September 2020
Orbit: 758 x 771 km, 98.6° (Epoch: 29 October)

Event Time Altitude Azimuth Distance (km) Brightness Sun altitude
Exits shadow 19:48:06 55° 67° (ENE) 908 3.6 -24.3°
Drops below altitude 10° 19:52:58 10° 353° (N) 2,300 6.5 -25.0°
Sets 19:55:19 0° 349° (N) 3,230 7.4 -25.3°
